CZ-6A DEB, 54958

Orbit data source: Space-Track

CZ-6A DEB, 54958 is space debris in SSO originally from a launch on Fri, 11 Nov 2022 UTC launched from the Taiyaun Space Center, China (TSC). Debris objects in space refer to the collection of defunct objects orbiting the Earth. Examples of debris include non-operational satellites, rocket bodies, and fragments generated from explosions, collisions, or faulty payload assembly.

Loading next visibility...
Identifier
54958, 2022-151SX
Orbit
SSO
Country
Flag of CNCN / PRC
Related business
Manufacturer
SAST
Mission
Spacecraft
Bus & Motor
Unknown
Mass
Unknown
Launch date (UTC)
2022-11-11 (4 years ago)
Launch vehicle
Unknown
Launch site
Taiyaun Space Center, China (TSC)
Object type
Payload
Rocket body
Debris
Shape & HBR
Unknown shape, 0.1 m
Radar Cross Section
Small (<0.1 m²)

Expand to show TLE details & history
Last TLE update: 2 days ago

TLE from 2 days ago
0 CZ-6A DEB
1 54958U 22151SX  26170.99063850  .00003512  00000-0  15288-2 0  9995
2 54958  98.8153 181.0160 0046051 297.8163  61.8352 14.24110766185816
Epoch: 2026-06-19T23:46Z
TLE epoch observation values (Epoch: 2026-06-19T23:46:31.166Z)
Latitude
-0.00003°
Longitude
-83.82554°
Altitude
798.889 km
Speed
7.462 km/s
True Right ascension
12h 04m 03s
True Declination
0° 00' 00"
Sunlit
Object was in daylight at epoch
Visualization orbit readout
Latitude
Unknown
Longitude
Unknown
Altitude
Unknown
Speed
Unknown
Apparent Right ascension
Unknown
Apparent Declination
Unknown
Sunlit
N/A
Visualization observer readout
Local Sidereal Time
21:27:15
Azimuth
Unknown
Elevation
Unknown
Doppler factor
Unknown
Orbital elements
Apogee altitude
841.738 km
Perigee altitude
775.546 km
Semi-major axis
7,186.779 km
Eccentricity
0.00461
Inclination
98.8153°
RAAN
181.016°
Arg. of periapsis
297.8163°
True anomaly
62.30168°
Mean anomaly
61.8352°
Eccentric anomaly
62.06832°
Mean motion
3.56239 °/min
Orbital period
101.06 mins
BSTAR
0.0015288
Loading maneuver chart data...
Computing Atmospheric mass density...
Loading historical data...
Loading historical data...
Loading historical data...
Loading historical data...
Loading historical data...
Loading historical data...
Loading historical data...

Documentation

Showing up to 5 results
|